Hourly Data Report for August 31, 2017

All times are specified in Local Standard Time (LST). Add 1 hour to adjust for Daylight Saving Time where and when it is observed.

ST. STEPHEN
NEW BRUNSWICK

45°12'36.600" N
67°15'10.300" W
26.10 m
8104935
71607
WSS

Download Data

Hourly Data (August 2017)
Hourly Data Report for August 31, 2017
Temp Definition
°C
Dew Point Temp Definition
°C
Rel Hum Definition
%
Wind Dir Definition
10's deg

Wind Spd Definition
km/h
Visibility Definition
km
Stn Press Definition
kPa
Hmdx Definition


Wind Chill Definition


Weather Definition


TIME
00:00 11.6 10.6 94   0   100.51     LegendNANA
01:00 10.7 9.8 95   0   100.46     LegendNANA
02:00 9.8 9.1 95 27 2   100.42     LegendNANA
03:00 10.7 10.0 96 28 4   100.37     LegendNANA
04:00 10.3 9.6 96 28 5   100.34     LegendNANA
05:00 10.4 9.6 95 31 4   100.32     LegendNANA
06:00 8.5 7.7 95 30 3   100.34     LegendNANA
07:00 10.8 9.7 93 28 3   100.37     LegendNANA
08:00 14.0 10.8 81 26 2   100.35     LegendNANA
09:00 17.5 11.1 66 23 6   100.29     LegendNANA
10:00 21.0 10.7 52 27 6   100.25     LegendNANA
11:00 22.8 11.7 50 22 11   100.21 25   LegendNANA
12:00 24.1 11.8 46 28 12   100.14 26   LegendNANA
13:00 24.1 11.6 46 25 18   100.09 26   LegendNANA
14:00 22.4 12.2 53 25 20   100.10 25   LegendNANA
15:00 20.4 12.2 59 29 15   100.14     LegendNANA
16:00 20.1 12.6 62 30 10   100.18     LegendNANA
17:00 20.8 10.7 53 31 13   100.21     LegendNANA
18:00 18.5 10.0 58 31 12   100.29     LegendNANA
19:00 16.6 10.0 65 30 5   100.35     LegendNANA
20:00 14.6 10.0 74 28 5   100.40     LegendNANA
21:00 12.6 8.6 77 29 3   100.43     LegendNANA
22:00 13.3 7.9 70 29 5   100.45     LegendNANA
23:00 10.2 7.5 83 30 4   100.47     LegendNANA

Notes on Data Quality.

Legend

  • E = Estimated
  • M = Missing
  • NA = Not Available
  • ‡ = Partner data that is not subject to review by the National Climate Archives
Date modified: